owner,sensor,date,latitude,longitude,vertical_datum,sea_water_practical_salinity,qcFlag 
DISL,ioos:station:DISL:DISL:1,2009-05-01T00:00:00Z,30.2513,-88.0778,6.662,12.09,1111122 
DISL,ioos:station:DISL:DISL:1,2009-05-01T00:30:00Z,30.2513,-88.0778,6.581,11.51,1111122 
DISL,ioos:station:DISL:DISL:1,2009-05-01T01:00:00Z,30.2513,-88.0778,6.512,11.11,1111122 
DISL,ioos:station:DISL:DISL:1,2009-05-01T01:30:00Z,30.2513,-88.0778,6.439,11.15,1111122 
DISL,ioos:station:DISL:DISL:1,2009-05-01T02:00:00Z,30.2513,-88.0778,6.351,11.32,1111122 
DISL,ioos:station:DISL:DISL:1,2009-05-01T02:30:00Z,30.2513,-88.0778,6.31,11.26,1111122 
DISL,ioos:station:DISL:DISL:1,2009-05-01T03:00:00Z,30.2513,-88.0778,6.201,11.48,1111122 
DISL,ioos:station:DISL:DISL:1,2009-05-01T03:30:00Z,30.2513,-88.0778,6.092,11.38,1111122 
DISL,ioos:station:DISL:DISL:1,2009-05-01T04:00:00Z,30.2513,-88.0778,6.023,11.21,1111122 
DISL,ioos:station:DISL:DISL:1,2009-05-01T04:30:00Z,30.2513,-88.0778,5.947,11.07,1111122 
DISL,ioos:station:DISL:DISL:1,2009-05-01T05:00:00Z,30.2513,-88.0778,5.906,10.67,1111122 
DISL,ioos:station:DISL:DISL:1,2009-05-01T05:30:00Z,30.2513,-88.0778,5.859,10.56,1111122 
DISL,ioos:station:DISL:DISL:1,2009-05-01T06:00:00Z,30.2513,-88.0778,5.767,10.93,1111122 
DISL,ioos:station:DISL:DISL:1,2009-05-01T06:30:00Z,30.2513,-88.0778,5.736,11.25,1111122 
DISL,ioos:station:DISL:DISL:1,2009-05-01T07:00:00Z,30.2513,-88.0778,5.644,12.0,1111122 
DISL,ioos:station:DISL:DISL:1,2009-05-01T07:30:00Z,30.2513,-88.0778,5.662,12.83,1111122 
DISL,ioos:station:DISL:DISL:1,2009-05-01T08:00:00Z,30.2513,-88.0778,5.65,13.11,1111122 
DISL,ioos:station:DISL:DISL:1,2009-05-01T08:30:00Z,30.2513,-88.0778,5.644,13.33,1111122 
DISL,ioos:station:DISL:DISL:1,2009-05-01T09:00:00Z,30.2513,-88.0778,5.658,13.49,1111122 
DISL,ioos:station:DISL:DISL:1,2009-05-01T09:30:00Z,30.2513,-88.0778,5.702,13.54,1111122 
DISL,ioos:station:DISL:DISL:1,2009-05-01T10:00:00Z,30.2513,-88.0778,5.749,13.63,1111122 
DISL,ioos:station:DISL:DISL:1,2009-05-01T10:30:00Z,30.2513,-88.0778,5.844,13.34,1111122 
DISL,ioos:station:DISL:DISL:1,2009-05-01T11:00:00Z,30.2513,-88.0778,5.909,13.2,1111122 
DISL,ioos:station:DISL:DISL:1,2009-05-01T11:30:00Z,30.2513,-88.0778,6.008,12.8,1111122 
DISL,ioos:station:DISL:DISL:1,2009-05-01T12:00:00Z,30.2513,-88.0778,6.137,12.41,1111122 
DISL,ioos:station:DISL:DISL:1,2009-05-01T12:30:00Z,30.2513,-88.0778,6.21,11.48,1111122 
DISL,ioos:station:DISL:DISL:1,2009-05-01T13:00:00Z,30.2513,-88.0778,6.326,11.18,1111122 
DISL,ioos:station:DISL:DISL:1,2009-05-01T13:30:00Z,30.2513,-88.0778,6.616,11.05,1111122 
DISL,ioos:station:DISL:DISL:1,2009-05-01T14:00:00Z,30.2513,-88.0778,6.479,11.09,1111122 
DISL,ioos:station:DISL:DISL:1,2009-05-01T14:30:00Z,30.2513,-88.0778,6.539,11.14,1111122 
DISL,ioos:station:DISL:DISL:1,2009-05-01T15:00:00Z,30.2513,-88.0778,6.59,11.16,1111122 
DISL,ioos:station:DISL:DISL:1,2009-05-01T15:30:00Z,30.2513,-88.0778,6.654,11.19,1111122 
DISL,ioos:station:DISL:DISL:1,2009-05-01T16:00:00Z,30.2513,-88.0778,6.72,11.15,1111122 
DISL,ioos:station:DISL:DISL:1,2009-05-01T16:30:00Z,30.2513,-88.0778,6.763,12.17,1111122 
DISL,ioos:station:DISL:DISL:1,2009-05-01T17:00:00Z,30.2513,-88.0778,6.838,14.11,1111122 
DISL,ioos:station:DISL:DISL:1,2009-05-01T17:30:00Z,30.2513,-88.0778,6.841,14.71,1111122 
DISL,ioos:station:DISL:DISL:1,2009-05-01T18:00:00Z,30.2513,-88.0778,6.896,12.87,1111122 
DISL,ioos:station:DISL:DISL:1,2009-05-01T18:30:00Z,30.2513,-88.0778,6.859,12.45,1111122 
DISL,ioos:station:DISL:DISL:1,2009-05-01T19:00:00Z,30.2513,-88.0778,6.862,13.3,1111122 
DISL,ioos:station:DISL:DISL:1,2009-05-01T19:30:00Z,30.2513,-88.0778,6.928,13.57,1111122 
DISL,ioos:station:DISL:DISL:1,2009-05-01T20:00:00Z,30.2513,-88.0778,7.02,11.88,1111122 
DISL,ioos:station:DISL:DISL:1,2009-05-01T20:30:00Z,30.2513,-88.0778,6.763,12.25,1111122 
DISL,ioos:station:DISL:DISL:1,2009-05-01T21:00:00Z,30.2513,-88.0778,6.749,11.46,1111122 
DISL,ioos:station:DISL:DISL:1,2009-05-01T21:30:00Z,30.2513,-88.0778,6.68,11.44,1111122 
DISL,ioos:station:DISL:DISL:1,2009-05-01T22:00:00Z,30.2513,-88.0778,6.63,11.37,1111122 
DISL,ioos:station:DISL:DISL:1,2009-05-01T22:30:00Z,30.2513,-88.0778,6.589,11.41,1111122 
DISL,ioos:station:DISL:DISL:1,2009-05-01T23:00:00Z,30.2513,-88.0778,6.588,11.71,1111122 
DISL,ioos:station:DISL:DISL:1,2009-05-01T23:30:00Z,30.2513,-88.0778,6.542,11.6,1111122 
DISL,ioos:station:DISL:DISL:1,2009-05-02T00:00:00Z,30.2513,-88.0778,6.443,11.52,1111122 
DISL,ioos:station:DISL:DISL:1,2009-05-02T00:30:00Z,30.2513,-88.0778,6.356,11.5,1111122 
DISL,ioos:station:DISL:DISL:1,2009-05-02T01:00:00Z,30.2513,-88.0778,6.279,11.54,1111122 
DISL,ioos:station:DISL:DISL:1,2009-05-02T01:30:00Z,30.2513,-88.0778,6.236,11.93,1111122 
DISL,ioos:station:DISL:DISL:1,2009-05-02T02:00:00Z,30.2513,-88.0778,6.191,12.65,1111122 
DISL,ioos:station:DISL:DISL:1,2009-05-02T02:30:00Z,30.2513,-88.0778,6.136,13.17,1111122 
DISL,ioos:station:DISL:DISL:1,2009-05-02T03:00:00Z,30.2513,-88.0778,6.199,13.58,1111122 
DISL,ioos:station:DISL:DISL:1,2009-05-02T03:30:00Z,30.2513,-88.0778,6.162,13.5,1111122 
DISL,ioos:station:DISL:DISL:1,2009-05-02T04:00:00Z,30.2513,-88.0778,6.11,13.34,1111122 
DISL,ioos:station:DISL:DISL:1,2009-05-02T04:30:00Z,30.2513,-88.0778,6.055,13.52,1111122 
DISL,ioos:station:DISL:DISL:1,2009-05-02T05:00:00Z,30.2513,-88.0778,6.0,13.31,1111122 
DISL,ioos:station:DISL:DISL:1,2009-05-02T05:30:00Z,30.2513,-88.0778,5.938,13.04,1111122 
DISL,ioos:station:DISL:DISL:1,2009-05-02T06:00:00Z,30.2513,-88.0778,5.868,13.05,1111122 
DISL,ioos:station:DISL:DISL:1,2009-05-02T06:30:00Z,30.2513,-88.0778,5.823,12.87,1111122 
DISL,ioos:station:DISL:DISL:1,2009-05-02T07:00:00Z,30.2513,-88.0778,5.762,12.81,1111122 
DISL,ioos:station:DISL:DISL:1,2009-05-02T07:30:00Z,30.2513,-88.0778,5.719,12.62,1111122 
DISL,ioos:station:DISL:DISL:1,2009-05-02T08:00:00Z,30.2513,-88.0778,5.687,12.16,1111122 
DISL,ioos:station:DISL:DISL:1,2009-05-02T08:30:00Z,30.2513,-88.0778,5.652,11.55,1111122 
DISL,ioos:station:DISL:DISL:1,2009-05-02T09:00:00Z,30.2513,-88.0778,5.632,11.67,1111122 
DISL,ioos:station:DISL:DISL:1,2009-05-02T09:30:00Z,30.2513,-88.0778,5.66,12.03,1111122 
DISL,ioos:station:DISL:DISL:1,2009-05-02T10:00:00Z,30.2513,-88.0778,5.696,12.01,1111122 
DISL,ioos:station:DISL:DISL:1,2009-05-02T10:30:00Z,30.2513,-88.0778,5.648,12.51,1111122 
DISL,ioos:station:DISL:DISL:1,2009-05-02T11:00:00Z,30.2513,-88.0778,5.757,12.58,1111122 
DISL,ioos:station:DISL:DISL:1,2009-05-02T11:30:00Z,30.2513,-88.0778,5.764,12.32,1111122 
DISL,ioos:station:DISL:DISL:1,2009-05-02T12:00:00Z,30.2513,-88.0778,5.832,11.96,1111122 
DISL,ioos:station:DISL:DISL:1,2009-05-02T12:30:00Z,30.2513,-88.0778,5.967,12.08,1111122 
DISL,ioos:station:DISL:DISL:1,2009-05-02T13:00:00Z,30.2513,-88.0778,5.987,12.29,1111122 
DISL,ioos:station:DISL:DISL:1,2009-05-02T13:30:00Z,30.2513,-88.0778,6.109,12.4,1111122 
DISL,ioos:station:DISL:DISL:1,2009-05-02T14:00:00Z,30.2513,-88.0778,6.14,12.57,1111122 
DISL,ioos:station:DISL:DISL:1,2009-05-02T14:30:00Z,30.2513,-88.0778,6.241,12.54,1111122 
DISL,ioos:station:DISL:DISL:1,2009-05-02T15:00:00Z,30.2513,-88.0778,6.243,12.27,1111122 
DISL,ioos:station:DISL:DISL:1,2009-05-02T15:30:00Z,30.2513,-88.0778,6.278,11.99,1111122 
DISL,ioos:station:DISL:DISL:1,2009-05-02T16:00:00Z,30.2513,-88.0778,6.304,11.94,1111122 
DISL,ioos:station:DISL:DISL:1,2009-05-02T16:30:00Z,30.2513,-88.0778,6.292,11.89,1111122 
DISL,ioos:station:DISL:DISL:1,2009-05-02T17:00:00Z,30.2513,-88.0778,6.333,11.87,1111122 
DISL,ioos:station:DISL:DISL:1,2009-05-02T17:30:00Z,30.2513,-88.0778,6.405,11.87,1111122 
DISL,ioos:station:DISL:DISL:1,2009-05-02T18:00:00Z,30.2513,-88.0778,6.387,12.27,1111122 
DISL,ioos:station:DISL:DISL:1,2009-05-02T18:30:00Z,30.2513,-88.0778,6.42,13.28,1111122 
DISL,ioos:station:DISL:DISL:1,2009-05-02T19:00:00Z,30.2513,-88.0778,6.43,13.27,1111122 
DISL,ioos:station:DISL:DISL:1,2009-05-02T19:30:00Z,30.2513,-88.0778,6.458,14.28,1111122 
DISL,ioos:station:DISL:DISL:1,2009-05-02T20:00:00Z,30.2513,-88.0778,6.474,13.41,1111122 
DISL,ioos:station:DISL:DISL:1,2009-05-02T20:30:00Z,30.2513,-88.0778,6.436,13.04,1111122 
DISL,ioos:station:DISL:DISL:1,2009-05-02T21:00:00Z,30.2513,-88.0778,6.395,12.3,1111122 
DISL,ioos:station:DISL:DISL:1,2009-05-02T21:30:00Z,30.2513,-88.0778,6.359,12.3,1111122 
DISL,ioos:station:DISL:DISL:1,2009-05-02T22:00:00Z,30.2513,-88.0778,6.316,11.95,1111122 
DISL,ioos:station:DISL:DISL:1,2009-05-02T22:30:00Z,30.2513,-88.0778,6.251,11.85,1111122 
DISL,ioos:station:DISL:DISL:1,2009-05-02T23:00:00Z,30.2513,-88.0778,6.301,12.1,1111122 
DISL,ioos:station:DISL:DISL:1,2009-05-02T23:30:00Z,30.2513,-88.0778,6.48,11.79,1111122 
DISL,ioos:station:DISL:DISL:1,2009-05-03T00:00:00Z,30.2513,-88.0778,6.288,13.55,1111122 
DISL,ioos:station:DISL:DISL:1,2009-05-03T00:30:00Z,30.2513,-88.0778,6.394,14.65,1111122 
DISL,ioos:station:DISL:DISL:1,2009-05-03T01:00:00Z,30.2513,-88.0778,6.427,16.01,1111122 
DISL,ioos:station:DISL:DISL:1,2009-05-03T01:30:00Z,30.2513,-88.0778,6.378,16.45,1111122 
DISL,ioos:station:DISL:DISL:1,2009-05-03T02:00:00Z,30.2513,-88.0778,6.413,16.83,1111122 
DISL,ioos:station:DISL:DISL:1,2009-05-03T02:30:00Z,30.2513,-88.0778,6.394,16.9,1111122 
DISL,ioos:station:DISL:DISL:1,2009-05-03T03:00:00Z,30.2513,-88.0778,6.279,16.46,1111122 
DISL,ioos:station:DISL:DISL:1,2009-05-03T03:30:00Z,30.2513,-88.0778,6.263,16.13,1111122 
DISL,ioos:station:DISL:DISL:1,2009-05-03T04:00:00Z,30.2513,-88.0778,6.23,16.24,1111122 
DISL,ioos:station:DISL:DISL:1,2009-05-03T04:30:00Z,30.2513,-88.0778,6.215,16.08,1111122 
DISL,ioos:station:DISL:DISL:1,2009-05-03T05:00:00Z,30.2513,-88.0778,6.203,16.08,1111122 
DISL,ioos:station:DISL:DISL:1,2009-05-03T05:30:00Z,30.2513,-88.0778,6.175,16.15,1111122 
DISL,ioos:station:DISL:DISL:1,2009-05-03T06:00:00Z,30.2513,-88.0778,6.178,16.4,1111122 
DISL,ioos:station:DISL:DISL:1,2009-05-03T06:30:00Z,30.2513,-88.0778,6.211,16.37,1111122 
DISL,ioos:station:DISL:DISL:1,2009-05-03T07:00:00Z,30.2513,-88.0778,6.157,15.98,1111122 
DISL,ioos:station:DISL:DISL:1,2009-05-03T07:30:00Z,30.2513,-88.0778,6.126,15.31,1111122 
DISL,ioos:station:DISL:DISL:1,2009-05-03T08:00:00Z,30.2513,-88.0778,6.063,14.22,1111122 
DISL,ioos:station:DISL:DISL:1,2009-05-03T08:30:00Z,30.2513,-88.0778,6.017,13.6,1111122 
DISL,ioos:station:DISL:DISL:1,2009-05-03T09:00:00Z,30.2513,-88.0778,6.026,13.79,1111122 
DISL,ioos:station:DISL:DISL:1,2009-05-03T09:30:00Z,30.2513,-88.0778,5.988,13.81,1111122 
DISL,ioos:station:DISL:DISL:1,2009-05-03T10:00:00Z,30.2513,-88.0778,5.96,13.17,1111122 
DISL,ioos:station:DISL:DISL:1,2009-05-03T10:30:00Z,30.2513,-88.0778,5.939,14.67,1111122 
DISL,ioos:station:DISL:DISL:1,2009-05-03T11:00:00Z,30.2513,-88.0778,6.038,14.9,1111122 
DISL,ioos:station:DISL:DISL:1,2009-05-03T11:30:00Z,30.2513,-88.0778,6.056,15.31,1111122 
DISL,ioos:station:DISL:DISL:1,2009-05-03T12:00:00Z,30.2513,-88.0778,6.142,15.55,1111122 
DISL,ioos:station:DISL:DISL:1,2009-05-03T12:30:00Z,30.2513,-88.0778,6.194,15.53,1111122 
DISL,ioos:station:DISL:DISL:1,2009-05-03T13:00:00Z,30.2513,-88.0778,6.249,15.38,1111122 
DISL,ioos:station:DISL:DISL:1,2009-05-03T13:30:00Z,30.2513,-88.0778,6.265,13.58,1111122 
DISL,ioos:station:DISL:DISL:1,2009-05-03T14:00:00Z,30.2513,-88.0778,6.336,12.63,1111122 
DISL,ioos:station:DISL:DISL:1,2009-05-03T14:30:00Z,30.2513,-88.0778,6.38,12.87,1111122 
DISL,ioos:station:DISL:DISL:1,2009-05-03T15:00:00Z,30.2513,-88.0778,6.452,13.22,1111122 
DISL,ioos:station:DISL:DISL:1,2009-05-03T15:30:00Z,30.2513,-88.0778,6.45,13.46,1111122 
DISL,ioos:station:DISL:DISL:1,2009-05-03T16:00:00Z,30.2513,-88.0778,6.399,13.52,1111122 
DISL,ioos:station:DISL:DISL:1,2009-05-03T16:30:00Z,30.2513,-88.0778,6.405,13.6,1111122 
DISL,ioos:station:DISL:DISL:1,2009-05-03T17:00:00Z,30.2513,-88.0778,6.436,13.66,1111122 
DISL,ioos:station:DISL:DISL:1,2009-05-03T17:30:00Z,30.2513,-88.0778,6.393,13.59,1111122 
DISL,ioos:station:DISL:DISL:1,2009-05-03T18:00:00Z,30.2513,-88.0778,6.386,13.48,1111122 
DISL,ioos:station:DISL:DISL:1,2009-05-03T18:30:00Z,30.2513,-88.0778,6.398,13.34,1111122 
DISL,ioos:station:DISL:DISL:1,2009-05-03T19:00:00Z,30.2513,-88.0778,6.359,13.18,1111122 
DISL,ioos:station:DISL:DISL:1,2009-05-03T19:30:00Z,30.2513,-88.0778,6.343,13.17,1111122 
DISL,ioos:station:DISL:DISL:1,2009-05-03T20:00:00Z,30.2513,-88.0778,6.274,13.15,1111122 
DISL,ioos:station:DISL:DISL:1,2009-05-03T20:30:00Z,30.2513,-88.0778,6.246,13.24,1111122 
DISL,ioos:station:DISL:DISL:1,2009-05-03T21:00:00Z,30.2513,-88.0778,6.231,13.43,1111122 
DISL,ioos:station:DISL:DISL:1,2009-05-03T21:30:00Z,30.2513,-88.0778,6.271,13.97,1111122 
DISL,ioos:station:DISL:DISL:1,2009-05-03T22:00:00Z,30.2513,-88.0778,6.213,13.36,1111122 
DISL,ioos:station:DISL:DISL:1,2009-05-03T22:30:00Z,30.2513,-88.0778,6.3,13.11,1111122 
DISL,ioos:station:DISL:DISL:1,2009-05-03T23:00:00Z,30.2513,-88.0778,6.157,13.13,1111122 
DISL,ioos:station:DISL:DISL:1,2009-05-03T23:30:00Z,30.2513,-88.0778,6.116,14.3,1111122 
DISL,ioos:station:DISL:DISL:1,2009-05-04T00:00:00Z,30.2513,-88.0778,6.113,14.23,1111122 
DISL,ioos:station:DISL:DISL:1,2009-05-04T00:30:00Z,30.2513,-88.0778,6.191,14.02,1111122 
DISL,ioos:station:DISL:DISL:1,2009-05-04T01:00:00Z,30.2513,-88.0778,6.073,11.08,1111122 
DISL,ioos:station:DISL:DISL:1,2009-05-04T01:30:00Z,30.2513,-88.0778,5.933,10.88,1111122 
DISL,ioos:station:DISL:DISL:1,2009-05-04T02:00:00Z,30.2513,-88.0778,5.876,10.61,1111122 
DISL,ioos:station:DISL:DISL:1,2009-05-04T02:30:00Z,30.2513,-88.0778,5.849,11.83,1111122 
DISL,ioos:station:DISL:DISL:1,2009-05-04T03:00:00Z,30.2513,-88.0778,5.906,12.17,1111122 
DISL,ioos:station:DISL:DISL:1,2009-05-04T03:30:00Z,30.2513,-88.0778,5.979,12.91,1111122 
DISL,ioos:station:DISL:DISL:1,2009-05-04T04:00:00Z,30.2513,-88.0778,5.897,13.04,1111122 
DISL,ioos:station:DISL:DISL:1,2009-05-04T04:30:00Z,30.2513,-88.0778,5.918,12.73,1111122 
DISL,ioos:station:DISL:DISL:1,2009-05-04T05:00:00Z,30.2513,-88.0778,5.946,12.0,1111122 
DISL,ioos:station:DISL:DISL:1,2009-05-04T05:30:00Z,30.2513,-88.0778,6.042,11.33,1111122 
DISL,ioos:station:DISL:DISL:1,2009-05-04T06:00:00Z,30.2513,-88.0778,6.087,11.73,1111122 
DISL,ioos:station:DISL:DISL:1,2009-05-04T06:30:00Z,30.2513,-88.0778,6.183,12.85,1111122 
DISL,ioos:station:DISL:DISL:1,2009-05-04T07:00:00Z,30.2513,-88.0778,6.166,13.45,1111122 
DISL,ioos:station:DISL:DISL:1,2009-05-04T07:30:00Z,30.2513,-88.0778,6.125,13.58,1111122 
DISL,ioos:station:DISL:DISL:1,2009-05-04T08:00:00Z,30.2513,-88.0778,6.139,13.76,1111122 
DISL,ioos:station:DISL:DISL:1,2009-05-04T08:30:00Z,30.2513,-88.0778,6.138,13.82,1111122 
DISL,ioos:station:DISL:DISL:1,2009-05-04T09:00:00Z,30.2513,-88.0778,6.195,13.97,1111122 
DISL,ioos:station:DISL:DISL:1,2009-05-04T09:30:00Z,30.2513,-88.0778,6.203,14.06,1111122 
DISL,ioos:station:DISL:DISL:1,2009-05-04T10:00:00Z,30.2513,-88.0778,6.257,14.24,1111122 
DISL,ioos:station:DISL:DISL:1,2009-05-04T10:30:00Z,30.2513,-88.0778,6.252,14.38,1111122 
DISL,ioos:station:DISL:DISL:1,2009-05-04T11:00:00Z,30.2513,-88.0778,6.3,14.54,1111122 
DISL,ioos:station:DISL:DISL:1,2009-05-04T11:30:00Z,30.2513,-88.0778,6.366,14.78,1111122 
DISL,ioos:station:DISL:DISL:1,2009-05-04T12:00:00Z,30.2513,-88.0778,6.354,14.78,1111122 
DISL,ioos:station:DISL:DISL:1,2009-05-04T12:30:00Z,30.2513,-88.0778,6.313,15.03,1111122 
DISL,ioos:station:DISL:DISL:1,2009-05-04T13:00:00Z,30.2513,-88.0778,6.322,14.81,1111122 
DISL,ioos:station:DISL:DISL:1,2009-05-04T13:30:00Z,30.2513,-88.0778,6.477,14.88,1111122 
DISL,ioos:station:DISL:DISL:1,2009-05-04T14:00:00Z,30.2513,-88.0778,6.425,14.78,1111122 
DISL,ioos:station:DISL:DISL:1,2009-05-04T14:30:00Z,30.2513,-88.0778,6.411,14.82,1111122 
DISL,ioos:station:DISL:DISL:1,2009-05-04T15:00:00Z,30.2513,-88.0778,6.461,14.9,1111122 
DISL,ioos:station:DISL:DISL:1,2009-05-04T15:30:00Z,30.2513,-88.0778,6.479,14.93,1111122 
DISL,ioos:station:DISL:DISL:1,2009-05-04T16:00:00Z,30.2513,-88.0778,6.421,15.05,1111122 
DISL,ioos:station:DISL:DISL:1,2009-05-04T16:30:00Z,30.2513,-88.0778,6.396,15.06,1111122 
DISL,ioos:station:DISL:DISL:1,2009-05-04T17:00:00Z,30.2513,-88.0778,6.432,15.14,1111122 
DISL,ioos:station:DISL:DISL:1,2009-05-04T17:30:00Z,30.2513,-88.0778,6.513,15.14,1111122 
DISL,ioos:station:DISL:DISL:1,2009-05-04T18:00:00Z,30.2513,-88.0778,6.594,15.2,1111122 
DISL,ioos:station:DISL:DISL:1,2009-05-04T18:30:00Z,30.2513,-88.0778,6.597,15.19,1111122 
DISL,ioos:station:DISL:DISL:1,2009-05-04T19:00:00Z,30.2513,-88.0778,6.399,15.25,1111122 
DISL,ioos:station:DISL:DISL:1,2009-05-04T19:30:00Z,30.2513,-88.0778,6.335,14.69,1111122 
DISL,ioos:station:DISL:DISL:1,2009-05-04T20:00:00Z,30.2513,-88.0778,6.24,13.59,1111122 
DISL,ioos:station:DISL:DISL:1,2009-05-04T20:30:00Z,30.2513,-88.0778,99999.0,0.6,11111222 
DISL,ioos:station:DISL:DISL:1,2009-05-04T21:00:00Z,30.2513,-88.0778,4.954,17.97,1111122 
DISL,ioos:station:DISL:DISL:1,2009-05-04T21:30:00Z,30.2513,-88.0778,4.915,18.52,1111122 
DISL,ioos:station:DISL:DISL:1,2009-05-04T22:00:00Z,30.2513,-88.0778,4.856,18.4,1111122 
DISL,ioos:station:DISL:DISL:1,2009-05-04T22:30:00Z,30.2513,-88.0778,4.792,18.42,1111122 
DISL,ioos:station:DISL:DISL:1,2009-05-04T23:00:00Z,30.2513,-88.0778,4.783,18.52,1111122 
DISL,ioos:station:DISL:DISL:1,2009-05-04T23:30:00Z,30.2513,-88.0778,4.894,17.6,1111122 
DISL,ioos:station:DISL:DISL:1,2009-05-05T00:00:00Z,30.2513,-88.0778,4.827,17.27,1111122 
DISL,ioos:station:DISL:DISL:1,2009-05-05T00:30:00Z,30.2513,-88.0778,4.846,17.29,1111122 
DISL,ioos:station:DISL:DISL:1,2009-05-05T01:00:00Z,30.2513,-88.0778,4.88,17.53,1111122 
DISL,ioos:station:DISL:DISL:1,2009-05-05T01:30:00Z,30.2513,-88.0778,4.929,17.75,1111122 
DISL,ioos:station:DISL:DISL:1,2009-05-05T02:00:00Z,30.2513,-88.0778,4.867,17.76,1111122 
DISL,ioos:station:DISL:DISL:1,2009-05-05T02:30:00Z,30.2513,-88.0778,4.913,17.73,1111122 
DISL,ioos:station:DISL:DISL:1,2009-05-05T03:00:00Z,30.2513,-88.0778,5.002,17.7,1111122 
DISL,ioos:station:DISL:DISL:1,2009-05-05T03:30:00Z,30.2513,-88.0778,5.003,17.72,1111122 
DISL,ioos:station:DISL:DISL:1,2009-05-05T04:00:00Z,30.2513,-88.0778,4.992,17.66,1111122 
DISL,ioos:station:DISL:DISL:1,2009-05-05T04:30:00Z,30.2513,-88.0778,5.043,17.86,1111122 
DISL,ioos:station:DISL:DISL:1,2009-05-05T05:00:00Z,30.2513,-88.0778,5.016,18.22,1111122 
DISL,ioos:station:DISL:DISL:1,2009-05-05T05:30:00Z,30.2513,-88.0778,5.007,18.63,1111122 
DISL,ioos:station:DISL:DISL:1,2009-05-05T06:00:00Z,30.2513,-88.0778,5.13,19.13,1111122 
DISL,ioos:station:DISL:DISL:1,2009-05-05T06:30:00Z,30.2513,-88.0778,5.117,19.32,1111122 
DISL,ioos:station:DISL:DISL:1,2009-05-05T07:00:00Z,30.2513,-88.0778,5.157,19.47,1111122 
DISL,ioos:station:DISL:DISL:1,2009-05-05T07:30:00Z,30.2513,-88.0778,5.2,19.63,1111122 
DISL,ioos:station:DISL:DISL:1,2009-05-05T08:00:00Z,30.2513,-88.0778,5.243,19.66,1111122 
DISL,ioos:station:DISL:DISL:1,2009-05-05T08:30:00Z,30.2513,-88.0778,5.26,19.7,1111122 
DISL,ioos:station:DISL:DISL:1,2009-05-05T09:00:00Z,30.2513,-88.0778,5.245,19.7,1111122 
DISL,ioos:station:DISL:DISL:1,2009-05-05T09:30:00Z,30.2513,-88.0778,5.364,19.62,1111122 
DISL,ioos:station:DISL:DISL:1,2009-05-05T10:00:00Z,30.2513,-88.0778,5.336,19.59,1111122 
DISL,ioos:station:DISL:DISL:1,2009-05-05T10:30:00Z,30.2513,-88.0778,5.382,19.51,1111122 
DISL,ioos:station:DISL:DISL:1,2009-05-05T11:00:00Z,30.2513,-88.0778,5.467,19.58,1111122 
DISL,ioos:station:DISL:DISL:1,2009-05-05T11:30:00Z,30.2513,-88.0778,5.455,19.65,1111122 
DISL,ioos:station:DISL:DISL:1,2009-05-05T12:00:00Z,30.2513,-88.0778,5.539,19.63,1111122 
DISL,ioos:station:DISL:DISL:1,2009-05-05T12:30:00Z,30.2513,-88.0778,5.571,19.5,1111122 
DISL,ioos:station:DISL:DISL:1,2009-05-05T13:00:00Z,30.2513,-88.0778,5.527,19.7,1111122 
DISL,ioos:station:DISL:DISL:1,2009-05-05T13:30:00Z,30.2513,-88.0778,5.597,19.79,1111122 
DISL,ioos:station:DISL:DISL:1,2009-05-05T14:00:00Z,30.2513,-88.0778,5.552,19.69,1111122 
DISL,ioos:station:DISL:DISL:1,2009-05-05T14:30:00Z,30.2513,-88.0778,5.548,19.61,1111122 
DISL,ioos:station:DISL:DISL:1,2009-05-05T15:00:00Z,30.2513,-88.0778,5.513,19.59,1111122 
DISL,ioos:station:DISL:DISL:1,2009-05-05T15:30:00Z,30.2513,-88.0778,5.505,19.64,1111122 
DISL,ioos:station:DISL:DISL:1,2009-05-05T16:00:00Z,30.2513,-88.0778,5.422,19.7,1111122 
DISL,ioos:station:DISL:DISL:1,2009-05-05T16:30:00Z,30.2513,-88.0778,5.329,19.78,1111122 
DISL,ioos:station:DISL:DISL:1,2009-05-05T17:00:00Z,30.2513,-88.0778,5.249,19.85,1111122 
DISL,ioos:station:DISL:DISL:1,2009-05-05T17:30:00Z,30.2513,-88.0778,5.124,19.93,1111122 
DISL,ioos:station:DISL:DISL:1,2009-05-05T18:00:00Z,30.2513,-88.0778,4.998,19.97,1111122 
DISL,ioos:station:DISL:DISL:1,2009-05-05T18:30:00Z,30.2513,-88.0778,4.952,20.04,1111122 
DISL,ioos:station:DISL:DISL:1,2009-05-05T19:00:00Z,30.2513,-88.0778,4.845,19.77,1111122 
DISL,ioos:station:DISL:DISL:1,2009-05-05T19:30:00Z,30.2513,-88.0778,4.692,20.1,1111122 
DISL,ioos:station:DISL:DISL:1,2009-05-05T20:00:00Z,30.2513,-88.0778,4.608,19.65,1111122 
DISL,ioos:station:DISL:DISL:1,2009-05-05T20:30:00Z,30.2513,-88.0778,4.655,16.26,1111122 
DISL,ioos:station:DISL:DISL:1,2009-05-05T21:00:00Z,30.2513,-88.0778,4.712,19.25,1111122 
DISL,ioos:station:DISL:DISL:1,2009-05-05T21:30:00Z,30.2513,-88.0778,4.735,16.97,1111122 
DISL,ioos:station:DISL:DISL:1,2009-05-05T22:00:00Z,30.2513,-88.0778,4.699,18.96,1111122 
DISL,ioos:station:DISL:DISL:1,2009-05-05T22:30:00Z,30.2513,-88.0778,4.637,16.24,1111122 
DISL,ioos:station:DISL:DISL:1,2009-05-05T23:00:00Z,30.2513,-88.0778,4.526,18.14,1111122 
DISL,ioos:station:DISL:DISL:1,2009-05-05T23:30:00Z,30.2513,-88.0778,4.516,17.98,1111122 
DISL,ioos:station:DISL:DISL:1,2009-05-06T00:00:00Z,30.2513,-88.0778,4.553,13.09,1111122 
DISL,ioos:station:DISL:DISL:1,2009-05-06T00:30:00Z,30.2513,-88.0778,4.608,12.23,1111122 
DISL,ioos:station:DISL:DISL:1,2009-05-06T01:00:00Z,30.2513,-88.0778,4.516,16.71,1111122 
DISL,ioos:station:DISL:DISL:1,2009-05-06T01:30:00Z,30.2513,-88.0778,4.519,14.41,1111122 
DISL,ioos:station:DISL:DISL:1,2009-05-06T02:00:00Z,30.2513,-88.0778,4.567,12.11,1111122 
DISL,ioos:station:DISL:DISL:1,2009-05-06T02:30:00Z,30.2513,-88.0778,4.615,13.08,1111122 
DISL,ioos:station:DISL:DISL:1,2009-05-06T03:00:00Z,30.2513,-88.0778,4.71,15.74,1111122 
DISL,ioos:station:DISL:DISL:1,2009-05-06T03:30:00Z,30.2513,-88.0778,4.719,16.74,1111122 
DISL,ioos:station:DISL:DISL:1,2009-05-06T04:00:00Z,30.2513,-88.0778,4.711,16.51,1111122 
DISL,ioos:station:DISL:DISL:1,2009-05-06T04:30:00Z,30.2513,-88.0778,4.753,15.87,1111122 
DISL,ioos:station:DISL:DISL:1,2009-05-06T05:00:00Z,30.2513,-88.0778,4.757,16.74,1111122 
DISL,ioos:station:DISL:DISL:1,2009-05-06T05:30:00Z,30.2513,-88.0778,4.761,16.13,1111122 
DISL,ioos:station:DISL:DISL:1,2009-05-06T06:00:00Z,30.2513,-88.0778,4.793,15.07,1111122 
DISL,ioos:station:DISL:DISL:1,2009-05-06T06:30:00Z,30.2513,-88.0778,4.842,16.1,1111122 
DISL,ioos:station:DISL:DISL:1,2009-05-06T07:00:00Z,30.2513,-88.0778,4.839,15.99,1111122 
DISL,ioos:station:DISL:DISL:1,2009-05-06T07:30:00Z,30.2513,-88.0778,4.859,16.81,1111122 
DISL,ioos:station:DISL:DISL:1,2009-05-06T08:00:00Z,30.2513,-88.0778,4.925,17.7,1111122 
DISL,ioos:station:DISL:DISL:1,2009-05-06T08:30:00Z,30.2513,-88.0778,4.985,18.33,1111122 
DISL,ioos:station:DISL:DISL:1,2009-05-06T09:00:00Z,30.2513,-88.0778,5.057,19.09,1111122 
DISL,ioos:station:DISL:DISL:1,2009-05-06T09:30:00Z,30.2513,-88.0778,5.167,19.69,1111122 
DISL,ioos:station:DISL:DISL:1,2009-05-06T10:00:00Z,30.2513,-88.0778,5.151,19.98,1111122 
DISL,ioos:station:DISL:DISL:1,2009-05-06T10:30:00Z,30.2513,-88.0778,5.262,20.29,1111122 
DISL,ioos:station:DISL:DISL:1,2009-05-06T11:00:00Z,30.2513,-88.0778,5.13,20.45,1111122 
DISL,ioos:station:DISL:DISL:1,2009-05-06T11:30:00Z,30.2513,-88.0778,5.389,20.53,1111122 
DISL,ioos:station:DISL:DISL:1,2009-05-06T12:00:00Z,30.2513,-88.0778,5.499,20.61,1111122 
DISL,ioos:station:DISL:DISL:1,2009-05-06T12:30:00Z,30.2513,-88.0778,5.529,20.71,1111122 
DISL,ioos:station:DISL:DISL:1,2009-05-06T13:00:00Z,30.2513,-88.0778,5.567,20.78,1111122 
DISL,ioos:station:DISL:DISL:1,2009-05-06T13:30:00Z,30.2513,-88.0778,5.568,20.82,1111122 
DISL,ioos:station:DISL:DISL:1,2009-05-06T14:00:00Z,30.2513,-88.0778,5.563,20.8,1111122 